User: anonymous   Login
Location: Unspecified
(0.0000°N, 0.0000°E)
Time: 06:55:57
(UTC+00:00)
Language:

LightSail 2 - Orbit

View from above orbital plane
View from above orbital plane
View from above satellite
View from above satellite

Ground track
Ground track

The orbit data is extracted from the following two-line orbital elements,

1 44420U 19036AC  20093.69085992 +.00006161 +00000-0 +13509-2 0  9999
2 44420 024.0113 226.3075 0022208 012.5035 347.6032 14.54983679039274
Epoch (UTC): 02 April 2020 16:34:50
Eccentricity: 0.0022208
inclination: 24.0113°
perigee height: 693 km
apogee height: 725 km
right ascension of ascending node: 226.3075°
argument of perigee: 12.5035°
revolutions per day: 14.54983679
mean anomaly at epoch: 347.6032°
orbit number at epoch: 3927

The dashed part of the orbit path shows where the satellite is in the earth's shadow,  

DLR